COSMOS 1275 DEB, 39936

Orbit data source: Space-Track

COSMOS 1275 DEB, 39936 is space debris in LEO originally from a launch on Thu, 04 Jun 1981 UTC launched from the Plesetsk Missile And Space Complex (PKMTR). Debris objects in space refer to the collection of defunct objects orbiting the Earth. Examples of debris include non-operational satellites, rocket bodies, and fragments generated from explosions, collisions, or faulty payload assembly.

Loading next visibility...
Identifier
39936, 1981-053MW
Orbit
LEO
Country
Flag of CISCIS
Related business
Manufacturer
Unknown
Mission
Spacecraft
Bus & Motor
Unknown
Mass
Unknown
Launch date (UTC)
1981-06-04 (45 years ago)
Launch vehicle
Unknown
Launch site
Plesetsk Missile And Space Complex (PKMTR)
Object type
Payload
Rocket body
Debris
Shape & HBR
Unknown shape, 0.1 m
Radar Cross Section
Small (<0.1 m²)

Expand to show TLE details & history
Last TLE update: 2 days ago

TLE from 2 days ago
0 COSMOS 1275 DEB
1 39936U 81053MW  26118.02836238  .00001395  00000-0  10861-2 0  9993
2 39936  83.1481 236.6111 0056022 331.0974  28.7092 13.91007065591688
Epoch: 2026-04-28T00:40Z
TLE epoch observation values (Epoch: 2026-04-28T00:40:50.509Z)
Latitude
0.00004°
Longitude
10.39109°
Altitude
892.193 km
Speed
7.424 km/s
True Right ascension
15h 46m 26s
True Declination
0° 00' 00"
Sunlit
Object was in full shadow at epoch
Visualization orbit readout
Latitude
Unknown
Longitude
Unknown
Altitude
Unknown
Speed
Unknown
Apparent Right ascension
Unknown
Apparent Declination
Unknown
Sunlit
N/A
Visualization observer readout
Local Sidereal Time
20:53:22
Azimuth
Unknown
Elevation
Unknown
Doppler factor
Unknown
Orbital elements
Apogee altitude
963.121 km
Perigee altitude
881.324 km
Semi-major axis
7,300.359 km
Eccentricity
0.0056
Inclination
83.1481°
RAAN
236.6111°
Arg. of periapsis
331.0974°
True anomaly
29.01948°
Mean anomaly
28.7092°
Eccentric anomaly
28.86415°
Mean motion
3.47958 °/min
Orbital period
103.46 mins
BSTAR
0.0010861
Loading maneuver chart data...
Computing Atmospheric mass density...

Documentation

Showing up to 5 results
|